Flag for U.S.A. Weather past 2 weeks in Jacksonville, Florida, U.S.A.

Now
70 °F

Clear.


Feels Like: 76 °F
Forecast: 55 / 74 °F
Wind: 8 mph from Northeast

Location: Jacksonville Naval Air Station

Current Time: Oct 22, 2014 at 9:51:02 PM

Latest Report: Oct 22, 2014 at 8:53 PM


Visibility: 10 mi

Pressure: 30.02 "Hg

Humidity: 57%

Dew point: 54 °F

Location of JacksonvilleLocation

Historic Weather in Jacksonville — Graph

°F

Jacksonville temperature yesterday

Maximum temperature yesterday: 85 °F (at 3:53 PM)
Minimum temperature yesterday: 69 °F (at 6:53 AM)
Average temperature yesterday: 77 °F

Past Weeks' High & Low Weather Summary

 TemperatureHumidityPressure
High91 °F (Oct 11, 4:53 PM)88% (Oct 10, 6:53 AM)30.16 "Hg (Oct 10, 6:53 AM)
Low60 °F (Oct 16, 6:53 AM)20% (Oct 11, 4:53 PM)29.86 "Hg (Oct 16, 2:53 PM)
Average77 °F64%30.00 "Hg
* Reported Oct 7 7:53 PM — Oct 22 7:53 PM, Jacksonville, Weather by CustomWeather, © 2014

Note: Actual official high and low records may vary slightly from our data, if they occured in-between our weather recording intervals... More about our weather records

Advertising

Jacksonville weather history for previous 24 hours

 ConditionsComfort  
Time TempWeatherWind HumidityBarometerVisibility
7:53 PM
Oct 22
70 °FClear.12 mph55%30.01 "Hg10 mi
6:53 PM71 °FSunny.13 mph51%30.00 "Hg10 mi
5:53 PM74 °FPassing clouds.9 mph46%29.98 "Hg10 mi
4:53 PM75 °FPassing clouds.12 mph45%29.98 "Hg10 mi
3:53 PM77 °FPassing clouds.14 mph44%29.98 "Hg10 mi
2:53 PM77 °FPassing clouds.10 mph44%29.98 "Hg10 mi
1:53 PM77 °FPassing clouds.10 mph44%29.99 "Hg10 mi
12:53 PM75 °FPassing clouds.8 mph48%30.02 "Hg10 mi
11:53 AM72 °FPassing clouds.9 mph55%30.03 "Hg10 mi
10:53 AM70 °FPassing clouds.9 mph55%30.03 "Hg10 mi
9:53 AM67 °FPassing clouds.10 mph59%30.02 "Hg10 mi
8:53 AM66 °FPassing clouds.13 mph61%30.01 "Hg10 mi
7:53 AM66 °FPassing clouds.9 mph63%29.98 "Hg10 mi
6:53 AM67 °FClear.12 mph61%29.97 "Hg10 mi
5:53 AM68 °FClear.12 mph61%29.95 "Hg10 mi
4:53 AM67 °FClear.9 mph66%29.93 "Hg10 mi
3:53 AM70 °FClear.6 mph61%29.93 "Hg10 mi
2:53 AM71 °FClear.6 mph61%29.93 "Hg10 mi
1:53 AM73 °FClear.8 mph55%29.94 "Hg10 mi
12:53 AM74 °FPassing clouds.7 mph64%29.95 "Hg10 mi
11:53 PM
Oct 21
73 °FPassing clouds.5 mph79%29.96 "Hg10 mi
10:53 PM75 °FPassing clouds.5 mph74%29.96 "Hg10 mi
9:53 PM77 °FPassing clouds.3 mph71%29.95 "Hg10 mi
Weather by CustomWeather, © 2014

See weather overviewHow to use our weather pages